Location: Christchurch
(43.5330°S, 172.6330°E)
Time: 22:10:44
(UTC+13:00)

Lacrosse 5 rocket - Pass Details

Date: 24 January 2019
Orbit: 459 x 639 km, 57.0° (Epoch: 15 October)

Event Time Altitude Azimuth Distance (km) Brightness Sun altitude
Rises 22:37:17 0° 224° (SW) 2,583 6.8 -14.4°
Reaches altitude 10° 22:40:27 10° 196° (SSW) 1,670 4.8 -14.8°
Maximum altitude 22:42:21 13° 165° (SSE) 1,457 3.9 -15.0°
Drops below altitude 10° 22:44:14 10° 134° (SE) 1,645 3.8 -15.2°
Enters shadow 22:46:18 - 112° (ESE) 2,184 4.2 -15.5°
